Bramble, Montserrat

1:11 AM AST on August 28, 2016 (GMT -0400)
V C Bird International | | Change Station

Elev 46 ft 17.12 °N, 61.78 °W | Updated 11 minutes ago

Partly Cloudy
Partly Cloudy
79 °F
Feels Like 79 °F
N
1
Wind Variable Wind from Variable

Today
High -- | Low -- °F
--% Chance of Precip.
Yesterday
High -- | Low -- °F
Precip. -- in
Pressure 29.95 in
Visibility 6.2 miles
Clouds Few 1800 ft
Dew Point 75 °F
Humidity 89%
Rainfall 0.00 in
Snow Depth Not available.
5:54 AM 6:24 PM
Waning Crescent, 18% visible
METAR TAPA 280500Z VRB01KT 9999 FEW018 26/24 Q1014 NOSIG
Pressure 29.95 in
Visibility 6.2 miles
Clouds Few 1800 ft
Dew Point 75 °F
Humidity 89%
Rainfall 0.00 in
Snow Depth Not available.
5:54 AM 6:24 PM
Waning Crescent, 18% visible
METAR TAPA 280500Z VRB01KT 9999 FEW018 26/24 Q1014 NOSIG

10-Day Weather Forecast

No radar image for this location.
×

Almanac

Astronomy

Aug. 28, 2016 Rise Set
Actual Time
Civil Twilight
Nautical Twilight
Astronomical Twilight
Moon
Length of Visible Light
Length of Day
Tomorrow will be .
, % of the Moon is Illuminated

Today's Extremes

Country Highs Country Lows

Community

WunderPhotos

Upload Photos

1,935,531 photos uploaded!

WunderBlog® & News

Nearby

Air Quality

  Air Quality AQ Index Pollutant
Not available.

Snow Depth

Station Depth Elevation

Earthquake Activity

City Distance Mag. Time & Date
Minimum magnitude displayed is 2.5.

Coastal Water Temperatures

Place Temperature

Stations

Nearby Weather Stations

Station Location Temp. Windchill Dew Point Humidity Wind Precip. Elev Updated Type